Overview Statistics Trail Chart Weather Telemetry Raw packets
 

This is the latest recevied weather packets stored in our database for station/object KD2FKI. If no packets are shown the sender has not sent any weather packets the latest 10 day(s).

<< 13 14 15 16 17 18 19 >>
Time Temp. Humidity Pressure Rain* Wind** Luminosity Snow
1788201327 33.33° C 57% - 0 mm - - -
1788200726 32.78° C 59% - 0 mm - - -
1788200122 32.78° C 59% - 0 mm - - -
1788199519 33.89° C 58% - 0 mm - - -
1788198935 32.78° C 59% - 0 mm - - -
1788198333 32.78° C 60% - 0 mm - - -
1788197732 32.78° C 59% - 0 mm - - -
1788197131 33.33° C 58% - 0 mm - - -
1788196526 32.22° C 62% - 0 mm - - -
1788195924 31.67° C 62% - 0 mm - - -
1788195327 31.67° C 61% - 0 mm - - -
1788194720 31.67° C 65% - 0 mm - - -
1788194137 32.22° C 64% - 0 mm - - -
1788193533 31.67° C 66% - 0 mm - - -
1788192931 30.56° C 67% - 0 mm - - -
1788192329 31.11° C 66% - 0 mm - - -
1788191726 31.11° C 67% - 0 mm - - -
1788191137 31.67° C 67% - 0 mm - - -
1788190521 29.44° C 75% - 0 mm - - -
1788189920 28.33° C 78% - 0 mm - - -
1788189335 28.33° C 77% - 0 mm - - -
1788188734 27.78° C 80% - 0 mm - - -
1788188132 27.22° C 82% - 0 mm - - -
1788187531 26.11° C 83% - 0 mm - - -
1788186926 25.56° C 84% - 0 mm - - -

* Rain latest hour (hover to see other rain measurements)
** Current wind speed in m/s (hover to see current wind gust speed)